Location: Ida Center
(41.8662°N, 83.5713°W)
Time: 07:49:44
(UTC+00:00)

Cosmos 2297 Rocket - Pass Details

Date: 17 November 2019
Orbit: 840 x 843 km, 71.0° (Epoch: 05 December)

Event Time Altitude Azimuth Distance (km) Brightness Sun altitude
Rises 23:13:13 0° 333° (NNW) 3,406 5.5 -11.5°
Reaches altitude 10° 23:15:40 10° 331° (NNW) 2,468 4.8 -12.0°
Maximum altitude 23:21:17 67° 250° (WSW) 912 2.6 -13.0°
Drops below altitude 10° 23:26:52 10° 169° (SSE) 2,453 4.6 -14.0°
Sets 23:29:18 0° 166° (SSE) 3,384 5.3 -14.4°
